Tracking 29892 objects as of 21-Nov-2024
HD Live streaming from Space Station
objects crossing your sky now

STARLINK-3649

Track STARLINK-3649 now!
10-day predictions
STARLINK-3649 is classified as:


NORAD ID: 51980
Int'l Code: 2022-025AA
Perigee: 545.7 km
Apogee: 548.1 km
Inclination: 53.2 °
Period: 95.4 minutes
Semi major axis: 6917 km
RCS: Unknown
Launch date: March 9, 2022
Source: United States (US)
Launch site: AIR FORCE EASTERN TEST RANGE (AFETR)
Your satellite tracking list
Your tracking list is empty




NASA's NSSDC Master Catalog

Two Line Element Set (TLE):
1 51980U 22025AA  24326.11658184  .00005384  00000-0  35611-3 0  9994
2 51980  53.2159   5.0725 0001775  92.1600 267.9596 15.08837833150654
Source of the keplerian elements: AFSPC